Location: Peebles
(55.6412°N, 3.1714°W)
Time: 05:41:16
(UTC+01:00)

Altair 2 - Pass Details

Date: 08 July 2022
Orbit: 702 x 2529 km, 96.4° (Epoch: 10 August)

Event Time Altitude Azimuth Distance (km) Brightness Sun altitude
Rises 02:26:53 0° 103° (ESE) 5,498 11.9 -10.5°
Reaches altitude 10° 02:31:26 10° 91° (E) 4,199 11.5 -10.3°
Maximum altitude 02:38:08 21° 48° (NE) 2,905 11.3 -10.0°
Drops below altitude 10° 02:43:31 10° 3° (N) 3,262 12.1 -9.8°
Sets 02:46:30 0° 348° (NNW) 3,983 12.3 -9.6°
